Regional Weather Roundup
Issued by NWS

Home | Current Version | Previous Version | Text Only | Print | Product List | Glossary On
Versions: 1 2 3 4 5 6 7 8 9 10 11 12 13 14 15 16 17 18 19 20 21 22 23 24 25 26 27 28 29 30 31 32 33 34 35 36 37 38 39 40 41 42 43 44 45 46 47 48 49 50
144
ASUS43 KMPX 060301
RWRMN
WEATHER ROUNDUP FOR MINNESOTA
NATIONAL WEATHER SERVICE TWIN CITIES/CHANHASSEN MN
900 PM CST MON DEC 05 2016


NOTE: "FAIR" INDICATES FEW OR NO CLOUDS BELOW 12,000 FEET WITH NO
SIGNIFICANT WEATHER AND/OR OBSTRUCTIONS TO VISIBILITY. N/A MEANS
CURRENT SKY AND/OR WEATHER CONDITIONS ARE NOT AVAILABLE.

MNZ060>063-068>070-060400-
   Twin Cities Metro

CITY           SKY/WX    TMP DP  RH WIND       PRES   REMARKS
TWIN CITIES    CLOUDY    38  31  76 S12G18    29.66R
ST PAUL        CLOUDY    37  33  85 S20G26    29.67S
CRYSTAL        CLOUDY    38  31  76 S14G22    29.63R
BLAINE         MOCLDY    39  36  87 S15G23    29.63S
LAKEVILLE      CLOUDY    37  34  87 S9G16     29.66S
EDEN PRAIRIE   CLOUDY    40  33  76 S15       29.63S
SOUTH ST PAUL  CLOUDY    38  32  80 S10G17    29.67S
LAKE ELMO      CLOUDY    36  32  87 S15       29.67S
$$
MNZ001>005-007-008-013>017-022>024-027-028-060400-
   Northwest Minnesota

CITY           SKY/WX    TMP DP  RH WIND       PRES   REMARKS
BEMIDJI        LGT SNOW  32  31  98 E15       29.47F WCI  22
HALLOCK        CLOUDY    32  28  86 NE14G23   29.58F WCI  22
ROSEAU         CLOUDY    30  27  86 E17G23    29.59F WCI  18
WARROAD        CLOUDY    30  27  86 E15       29.61F WCI  19
THIEF RVR FALL LGT SNOW  28  27  96 NE18G26   29.49F VSB 3/4 WCI  15
CROOKSTON      LGT SNOW  30  28  93 E16G22    29.47F WCI  19
FOSSTON        LGT SNOW  30  28  93 E10G17    29.45F WCI  21
DETROIT LAKES  CLOUDY    34  32  93 SE12      29.42F WCI  25
MOORHEAD       CLOUDY    34  32  93 S7        29.43F WCI  28
PARK RAPIDS    CLOUDY    35  30  82 SE14      29.45F WCI  26
$$
MNZ006-009>011-018-025>026-060400-
   North Central Minnesota

CITY           SKY/WX    TMP DP  RH WIND       PRES   REMARKS
BAUDETTE       CLOUDY    30  26  85 E15G22    29.60F WCI  19
FLAG ISLAND    CLOUDY    32  27  80 E16G22    29.63F WCI  21
INTL FALLS     HVY SNOW  29  27  92 E13G20    29.63F VSB 1/4 WCI  19
WASKISH        LGT SNOW  30  28  93 E14       29.55F WCI  20
BIG FORK       FLURRIES  30  28  93 E8        29.57F WCI  23
LONGVILLE      CLOUDY    34  32  93 SE7       29.50F WCI  28
GRAND RAPIDS   LGT RAIN  33  31  92 SE13      29.57F WCI  24
CRANE LAKE     SNOW      28  27  93 CALM      29.66F VSB 1/2
COOK           LGT SNOW  30  30 100 E5        29.62S VSB 1   WCI  25
$$
MNZ012-019>021-037-060400-
   Northeast Minnesota

CITY           SKY/WX    TMP DP  RH WIND       PRES   REMARKS
DULUTH         LGT SNOW  34  33  96 SE15      29.64F FOG     WCI  24
ELY            CLOUDY    30  28  93 E14       29.65F WCI  20
HIBBING        LGT SNOW  32  31  96 SE17      29.60F FOG     WCI  21
EVELETH        LGT SNOW  33  32  97 SE10G16   29.63F WCI  24
DULUTH HARBOR  DRIZZLE   37  34  87 E13       29.69F
TWO HARBORS    CLOUDY    37  34  87 E8        29.68F
SILVER BAY     CLOUDY    34  34 100 E10       29.69F FOG     WCI  26
GRAND MARAIS     N/A     36  32  85 E16       29.81F
G MARAIS ARPRT LGT SNOW  28  25  86 E9        29.76F WCI  20
$$
MNZ029>031-032-039>041-046>048-054>057-064-060400-
   West Central Minnesota

CITY           SKY/WX    TMP DP  RH WIND       PRES   REMARKS
FERGUS FALLS   CLOUDY    34  34 100 SW18      29.48S WCI  23
WHEATON        CLOUDY    34  30  86 SW23      29.54R WCI  22
MORRIS         CLOUDY    34  30  86 W17       29.52R WCI  23
ALEXANDRIA     CLOUDY    34  31  88 SW17      29.49R WCI  23
ELBOW LAKE     CLOUDY    33  32  95 SW20G26   29.47R WCI  22
WADENA         CLOUDY    34  32  93 SE12      29.44F WCI  25
GLENWOOD       MOCLDY    34  30  86 SW21G26   29.51R WCI  22
APPLETON       CLOUDY    36  28  75 W24       29.56R
BENSON         CLOUDY    36  28  75 W16       29.56R
ORTONVILLE     MOCLDY    32  27  80 W18G26    29.57R WCI  20
MADISON        CLOUDY    36  30  80 W20G28    29.59R
WILLMAR        MOCLDY    36  30  80 SW22      29.60R
$$
MNZ033>034-036-042>043-049>051-058-059-060400-
   Central Minnesota

CITY           SKY/WX    TMP DP  RH WIND       PRES   REMARKS
ST CLOUD       CLOUDY    38  35  89 S16       29.56R
PAYNESVILLE    CLOUDY    35  33  92 SW18G24   29.57R WCI  25
AITKIN         CLOUDY    37  30  75 SE14      29.53F
PINE RIVER     CLOUDY    34  34 100 SE13      29.54F WCI  25
BRAINERD       CLOUDY    35  32  88 SE10G21   29.52F WCI  27
STAPLES        CLOUDY    34  34 100 SE9G16    29.47F WCI  26
LONG PRAIRIE   CLOUDY    36  32  87 S13G21    29.49S
LITTLE FALLS   CLOUDY    36  32  87 SE14      29.52F
LITCHFIELD     CLOUDY    37  34  87 SW13G25   29.59R
BUFFALO        CLOUDY    39  34  81 S10G18    29.61R
MAPLE LAKE     CLOUDY    39  36  88 S10G17    29.59S
$$
MNZ037-044-045-052-053-060400-
   East Central Minnesota

CITY           SKY/WX    TMP DP  RH WIND       PRES   REMARKS
PRINCETON      CLOUDY    39  34  81 SE16G23   29.59S
MORA           CLOUDY    36  32  87 S9G20     29.61F
CAMBRIDGE      CLOUDY    39  30  70 S16       29.59S
RUSH CITY      CLOUDY    36  32  87 S10G17    29.63S
MOOSE LAKE     CLOUDY    34  32  93 SE5       29.60S WCI  30
HINCKLEY       CLOUDY    36  34  93 SE13      29.62F
CLOQUET        LGT SNOW  34  30  86 E12G18    29.63F WCI  25
MCGREGOR       CLOUDY    34  32  93 SE12      29.57F WCI  25
$$
MNZ071>073-080-081-089-090-097-098-060400-
   Southwest Minnesota

CITY           SKY/WX    TMP DP  RH WIND       PRES   REMARKS
MONTEVIDEO     CLOUDY    34  28  80 W15G21    29.61R WCI  24
GRANITE FALLS  CLOUDY    35  30  82 W21G28    29.64R WCI  24
CANBY          CLOUDY    32  27  81 W23G37    29.64R WCI  19
MARSHALL       CLOUDY    32  26  78 W32G43    29.63R WCI  17
REDWOOD FALLS  CLOUDY    36  28  73 W18G25    29.64R
OLIVIA         CLOUDY    36  32  87 W15       29.61R
PIPESTONE      CLOUDY    30  27  86 NW24G31   29.68R WCI  16
WINDOM         CLOUDY    36  30  80 W16G23    29.67R
WORTHINGTON    CLOUDY    32  28  85 W29G36    29.68R WCI  18
JACKSON        CLOUDY    34  30  86 W15G23    29.69R WCI  24
TRACY          CLOUDY    33  28  82 W17G31    29.65R WCI  22
SLAYTON        CLOUDY    32  28  84 W32G40    29.64R WCI  17
$$
MNZ065>067-074>077-082>085-091>093-060400-
   South Central Minnesota

CITY           SKY/WX    TMP DP  RH WIND       PRES   REMARKS
MANKATO        CLOUDY    40  36  86 S17G23    29.65R
NEW ULM        MOCLDY    37  32  81 SW16G26   29.65R
ST JAMES       MOCLDY    37  32  81 SW18      29.69
FAIRMONT       CLOUDY    40  33  76 W20       29.68R
GLENCOE        CLOUDY    41  38  91 S10G20    29.61R
FARIBAULT      CLOUDY    37  34  87 S15G26    29.67S
OWATONNA       PTCLDY    36  32  87 S22G29    29.68R
WASECA         CLOUDY    36  32  87 S24       29.67S
ALBERT LEA     CLOUDY    39  37  93 S15       29.69S
$$
MNZ078>079-086>088-094>096-060400-
   Southeast Minnesota

CITY           SKY/WX    TMP DP  RH WIND       PRES   REMARKS
ROCHESTER      CLOUDY    34  31  88 S20       29.74R WCI  23
RED WING       DRIZZLE   37  30  75 SE13G18   29.71S
STANTON        DRIZZLE   38  33  82 S16G22    29.66S
DODGE CENTER   MIX PCPN  34  32  93 S20G25    29.70F WCI  22
WINONA         PTCLDY    36  30  80 S8        29.78S
AUSTIN         MIX PCPN  34  30  86 S9G17     29.72F WCI  26
PRESTON        PTCLDY    32  29  88 S10       29.77R WCI  24
$$
ABBREVIATIONS USED IN REMARKS
   TC - TEMPERATURES IN CELSIUS
  WCI - WIND CHILL INDEX
   HX - HEAT INDEX
  VSB - VISIBILITY
$$




USA.gov is the U.S. government's official web portal to all federal, state and local government web resources and services.